TRANSIT 5B-1 DEB, 2097

Orbit data source: Space-Track

TRANSIT 5B-1 DEB, 2097 is space debris in LEO originally from a launch on Sat, 28 Sep 1963 UTC launched from the Air Force Western Test Range (AFWTR). Debris objects in space refer to the collection of defunct objects orbiting the Earth. Examples of debris include non-operational satellites, rocket bodies, and fragments generated from explosions, collisions, or faulty payload assembly.

Loading next visibility...
Identifier
2097, 1963-038G
Orbit
LEO
Country
Flag of USUS
Related business
Manufacturer
Unknown
Mission
Spacecraft
Bus & Motor
Unknown
Mass
Unknown
Launch date (UTC)
1963-09-28 (62 years ago)
Launch vehicle
Unknown
Launch site
Air Force Western Test Range (AFWTR)
Object type
Payload
Rocket body
Debris
Shape & HBR
Unknown shape, 0.1 m
Radar Cross Section
Small (<0.1 m²)

Expand to show TLE details & history
Last TLE update: 23 hours ago

TLE from 23 hours ago
0 TRANSIT 5B-1 DEB
1 02097U 63038G   25340.27193622  .00001121  00000-0  13395-2 0  9992
2 02097  89.9998 338.1723 0041061  49.3741 333.4724 13.66205383 73282
Epoch: 2025-12-06T06:31Z
TLE epoch observation values (Epoch: 2025-12-06T06:31:35.289Z)
Latitude
22.65027°
Longitude
164.97329°
Altitude
988.916 km
Speed
7.373 km/s
True Right ascension
22h 32m 41s
True Declination
22° 31' 56"
Sunlit
Object was in daylight at epoch
Visualization orbit readout
Latitude
Unknown
Longitude
Unknown
Altitude
Unknown
Speed
Unknown
Apparent Right ascension
Unknown
Apparent Declination
Unknown
Sunlit
N/A
Visualization observer readout
Local Sidereal Time
04:02:58
Azimuth
Unknown
Elevation
Unknown
Doppler factor
Unknown
Orbital elements
Apogee altitude
1,040.589 km
Perigee altitude
979.914 km
Semi-major axis
7,388.389 km
Eccentricity
0.00411
Inclination
89.9998°
RAAN
338.1723°
Arg. of periapsis
49.3741°
True anomaly
333.26128°
Mean anomaly
333.4724°
Eccentric anomaly
333.36694°
Mean motion
3.41758 °/min
Orbital period
105.34 mins
BSTAR
0.0013395
Loading maneuver chart data...
Computing Atmospheric mass density...

Documentation

Showing up to 5 results
|